Погода в Оноприеновке

Россия / Оренбургская область     51°38′00″N   57°46′01″E
темп.,
°C
ветер,
м/с
пор.,
м/с
влажн.,
%
обл.,
%
осадки,
мм/ч
давл.,
гПа
погр.,
м
6 марта, сб
сб623:00−1зюз101597100 5.5 10091001
02:00−3з6129695 1.1 1011574
05:00−5зсз349794 1.5 101295
08:00−7зсз2296100 0.3 101323
11:00−5зсз248683 0.3 1014306
14:00−4з35775 0.0 1015664
17:00−5з348633 0.0 1015194
20:00−8юз1186100 0.0 101421
7 марта, вс
вс723:00−7ююв1286100 0.0 101322
02:00−7в3596100 0.6 1010211
05:00−7в61095100 2.9 1008303
08:00−7всв4696100 3.8 1005166
11:00−7св4696100 7.6 1003204
14:00−6с5895100 3.2 1004523
17:00−6сз81088100 4.2 1007791
20:00−13зсз6128964 0.0 1012248
8 марта, пн
пн823:00−17зсз349132 0.0 101639
02:00−18зюз34950 0.0 101642
05:00−19юз479815 0.0 101687
08:00−16юз51395100 0.0 1015293
11:00−11юз91794100 0.1 1014637
14:00−6юз121893100 0.6 10131089
17:00−6юз111794100 1.8 10121062
20:00−6юз101794100 1.0 1012881
9 марта, вт
вт923:00−6юз91694100 1.9 1012740
02:00−6юз91794100 1.2 1011651
05:00−7юз101794100 2.3 1010699
08:00−7юз91594100 1.6 1009645
11:00−6юз81395100 2.7 1010638
14:00−4юз81194100 0.7 1010740
17:00−4юз71096100 1.2 1010826
20:00−7зсз2397100 0.8 101166
10 марта, ср
ср1023:00−12зсз2395100 0.9 101223
02:00−13з2389100 0.0 101230
05:00−14зсз2292100 0.0 101221
08:00−16з229471 0.0 101220
11:00−12з249167 0.0 1011215
14:00−10з469066 0.0 1011541
17:00−11зсз689183 0.1 1011554
20:00−16з61098100 0.0 1013290